Location: Siloam Springs
(36.1881°N, 94.5403°W)
Time: 08:54:42
(UTC-05:00)

Envisat - Pass Details

Date: 06 March 2024
Orbit: 762 x 764 km, 98.3° (Epoch: 24 April)

Event Time Altitude Azimuth Distance (km) Brightness Sun altitude
Rises 04:35:28 0° 359° (N) 3,235 6.4 -26.0°
Reaches altitude 10° 04:38:05 10° 347° (NNW) 2,304 5.5 -25.5°
Enters shadow 04:39:09 15° 339° (NNW) 1,975 5.0 -25.3°
